Back to catalog

CZ-6A DEB

AliveSSO
NORAD 54580·DEBRIS·🇨🇳 China

Launched Nov 11, 2022 from Taiyuan Satellite Launch Center

Loading…

Next Passes (next 24 hours)

TLE

FreshSource: Space-Track

Epoch: Sep 14, 2026, 11:56 UTC

1 54580U 22151MG  26257.49779474  .00003529  00000-0  14715-2 0  9995
2 54580  98.8598 273.9923 0087984 104.6713 256.4239 14.24798655197531

Track CZ-6A DEB in real time with AllMySat

Download on the App Store